Saginaw, TX

2:38 PM CDT on September 26, 2016 (GMT -0500)
Fort Worth Meacham International

Weather History for KFTW - April, 2013

Change the Weather History Date:

Thursday, April 4, 2013

  Actual Average Record
Temperature  
Mean Temperature 44 °F -  
Max Temperature 48 °F 70 °F 84 °F (2001)
Min Temperature 39 °F 50 °F 39 °F (1998)
Degree Days  
Heating Degree Days 22    
Moisture  
Dew Point 40 °F    
Average Humidity 88    
Maximum Humidity 100    
Minimum Humidity 74    
Precipitation  
Precipitation 0.01 in - - ()
Sea Level Pressure  
Sea Level Pressure 30.17 in    
Wind  
Wind Speed 10 mph (NW)    
Max Wind Speed 15 mph    
Max Gust Speed 22 mph    
Visibility 9 miles    
Events Rain    
Averages and records for this station are not official NWS values.
T = Trace of Precipitation, MM = Missing Value Source: NWS Daily Summary

Daily Weather History Graph

Daily Weather History Graph

Search for Another Location

Airport or City:

Trip Planner

Search our weather history database for the weather conditions in past years. The results will help you decide how hot, cold, wet, or windy it might be!

Date:

Astronomy

Apr. 04, 2013 Rise Set
Actual Time 7:13 AM CDT 7:51 PM CDT
Civil Twilight 6:48 AM CDT 8:16 PM CDT
Nautical Twilight 6:18 AM CDT 8:46 PM CDT
Astronomical Twilight 5:49 AM CDT 9:16 PM CDT
Moon 3:22 AM CDT (4/4) 2:28 PM CDT (4/4)
Length of Visible Light 13h 28m
Length of Day
12h 38m
Waning Crescent, 33% of the Moon is Illuminated
Apr 4
Waning Crescent
Apr 10
New
Apr 18
First Quarter
Apr 25
Full
May 2
Last Quarter

Hourly Weather History & Observations

Time (CDT) Temp. Windchill Dew Point Humidity Pressure Visibility Wind Dir Wind Speed Gust Speed Precip Events Conditions
12:53 AM 41.0 °F 35.2 °F 41.0 °F 100% 30.17 in 10.0 mi NNW 9.2 mph - 0.00 in   Overcast
1:06 AM 41.0 °F 34.3 °F 39.2 °F 93% 30.16 in 10.0 mi NW 11.5 mph - N/A   Overcast
1:53 AM 41.0 °F 34.7 °F 39.9 °F 96% 30.16 in 10.0 mi NW 10.4 mph - N/A   Overcast
2:37 AM 39.2 °F 32.5 °F 39.2 °F 100% 30.14 in 3.0 mi NNW 10.4 mph - 0.00 in Rain Light Rain
2:53 AM 39.9 °F 35.1 °F 39.9 °F 100% 30.14 in 5.0 mi NNW 6.9 mph - 0.00 in Rain Light Rain
3:25 AM 39.2 °F 32.5 °F 39.2 °F 100% 30.13 in 6.0 mi NW 10.4 mph - 0.00 in   Overcast
3:53 AM 41.0 °F 35.2 °F 41.0 °F 100% 30.13 in 6.0 mi NW 9.2 mph - 0.00 in   Overcast
4:50 AM 41.0 °F 35.2 °F 39.2 °F 93% 30.12 in 10.0 mi NNW 9.2 mph - N/A   Overcast
4:53 AM 41.0 °F 34.7 °F 39.9 °F 96% 30.13 in 10.0 mi NNW 10.4 mph - N/A   Overcast
5:53 AM 41.0 °F 34.3 °F 39.9 °F 96% 30.13 in 10.0 mi NNW 11.5 mph - N/A   Overcast
6:53 AM 41.0 °F 34.7 °F 39.9 °F 96% 30.15 in 10.0 mi NNW 10.4 mph - N/A   Overcast
7:08 AM 41.0 °F 34.7 °F 39.2 °F 93% 30.15 in 10.0 mi NNW 10.4 mph - N/A   Overcast
7:36 AM 41.0 °F 35.8 °F 39.2 °F 93% 30.15 in 10.0 mi NNW 8.1 mph - N/A   Overcast
7:43 AM 41.0 °F 34.7 °F 39.2 °F 93% 30.15 in 10.0 mi NW 10.4 mph - N/A   Overcast
7:53 AM 41.0 °F 34.7 °F 39.9 °F 96% 30.16 in 10.0 mi NNW 10.4 mph - N/A   Overcast
8:24 AM 41.0 °F 34.7 °F 39.2 °F 93% 30.15 in 10.0 mi NNW 10.4 mph - N/A   Overcast
8:53 AM 41.0 °F 33.9 °F 39.0 °F 93% 30.17 in 10.0 mi NNW 12.7 mph - N/A   Overcast
9:40 AM 42.8 °F 36.6 °F 39.2 °F 87% 30.18 in 10.0 mi NW 11.5 mph - N/A   Overcast
9:53 AM 42.1 °F 36.6 °F 39.9 °F 92% 30.19 in 10.0 mi NW 9.2 mph - N/A   Overcast
10:53 AM 43.0 °F 36.0 °F 39.0 °F 86% 30.21 in 10.0 mi NNW 13.8 mph - N/A   Overcast
11:53 AM 43.0 °F 36.4 °F 39.9 °F 89% 30.22 in 10.0 mi NNW 12.7 mph - N/A   Overcast
12:53 PM 44.1 °F 37.7 °F 39.9 °F 85% 30.22 in 10.0 mi NNW 12.7 mph 20.7 mph 0.01 in   Overcast
1:28 PM 44.6 °F 38.1 °F 41.0 °F 87% 30.20 in 10.0 mi NW 13.8 mph - N/A   Overcast
1:40 PM 44.6 °F 38.4 °F 39.2 °F 81% 30.19 in 10.0 mi NNW 12.7 mph - N/A   Overcast
1:53 PM 45.0 °F 39.7 °F 39.9 °F 82% 30.19 in 10.0 mi NNW 10.4 mph - N/A   Overcast
2:53 PM 48.0 °F - 39.9 °F 74% 30.18 in 10.0 mi NNW 15.0 mph - N/A   Overcast
3:53 PM 48.0 °F - 39.9 °F 74% 30.16 in 10.0 mi NW 12.7 mph - N/A   Overcast
4:53 PM 48.9 °F - 41.0 °F 74% 30.14 in 10.0 mi NNW 10.4 mph 21.9 mph N/A   Overcast
5:53 PM 48.9 °F - 41.0 °F 74% 30.15 in 10.0 mi NW 11.5 mph - N/A   Overcast
6:53 PM 48.0 °F - 39.9 °F 74% 30.15 in 10.0 mi NW 12.7 mph - N/A   Overcast
7:53 PM 46.9 °F - 39.9 °F 77% 30.16 in 10.0 mi NW 9.2 mph - N/A   Overcast
8:53 PM 46.9 °F - 39.9 °F 77% 30.17 in 10.0 mi NNW 6.9 mph - N/A   Overcast
9:53 PM 46.9 °F - 41.0 °F 80% 30.20 in 10.0 mi NW 5.8 mph - N/A   Overcast
10:53 PM 46.0 °F 42.5 °F 39.9 °F 79% 30.21 in 10.0 mi NW 6.9 mph - N/A   Overcast
11:17 PM 44.6 °F 42.2 °F 39.2 °F 81% 30.20 in 10.0 mi NW 4.6 mph - N/A   Scattered Clouds
11:53 PM 44.1 °F 42.5 °F 39.9 °F 85% 30.20 in 10.0 mi WNW 3.5 mph - N/A   Clear